Weather History for Sparta, TN

Change the Weather History Date:

Wednesday, February 19, 2014

  Actual Average (KCSV) Record (KCSV)
Temperature  
Mean Temperature 55 °F 40 °F  
Max Temperature 66 °F 49 °F 70 °F (1986)
Min Temperature 44 °F 31 °F -1 °F (1958)
Degree Days  
Heating Degree Days 10    
Month to date heating degree days  
Since 1 July heating degree days  
Cooling Degree Days 0    
Month to date cooling degree days  
Year to date cooling degree days  
Growing Degree Days 5 (Base 50)    
Moisture  
Dew Point 47 °F    
Average Humidity 71    
Maximum Humidity 94    
Minimum Humidity 40    
Precipitation  
Precipitation 0.00 in 0.16 in 2.08 in (1991)
Month to date precipitation 3.02  
Year to date precipitation 7.78  
Sea Level Pressure  
Sea Level Pressure 29.97 in    
Wind  
Wind Speed 8 mph (West)    
Max Wind Speed 16 mph    
Max Gust Speed -    
Visibility 10 miles    
Events      
T = Trace of Precipitation, MM = Missing Value Source: NWS Daily Summary

Daily Weather History Graph

Daily Weather History Graph

Search for Another Location

Airport:

Trip Planner

Search our weather history database for the weather conditions in past years. The results will help you decide how hot, cold, wet, or windy it might be!

Date:

Astronomy

Feb. 19, 2014 Rise Set
Actual Time 6:24 AM CST 5:27 PM CST
Civil Twilight 5:58 AM CST 5:53 PM CST
Nautical Twilight 5:28 AM CST 6:23 PM CST
Astronomical Twilight 4:59 AM CST 6:53 PM CST
Moon 10:09 PM CST (2/19) 8:39 AM CST (2/19)
Length of Visible Light 11h 54m
Length of Day
11h 02m
Waning Gibbous, 79% of the Moon is Illuminated
Feb 19
Waning Gibbous
Feb 22
Last Quarter
Mar 1
New
Mar 8
First Quarter
Mar 16
Full

Hourly Weather History & Observations

Time (CST) Temp. Windchill Dew Point Humidity Pressure Visibility Wind Dir Wind Speed Gust Speed Precip Events Conditions
12:55 AM 59.0 °F - 53.6 °F 82% 29.90 in 10.0 mi SSW 11.5 mph - N/A   Mostly Cloudy
1:15 AM 59.0 °F - 53.6 °F 82% 29.89 in 10.0 mi SW 12.7 mph - N/A   Mostly Cloudy
1:35 AM 59.0 °F - 55.4 °F 88% 29.88 in 10.0 mi SW 12.7 mph - N/A   Mostly Cloudy
1:55 AM 59.0 °F - 55.4 °F 88% 29.87 in 10.0 mi SW 13.8 mph - N/A   Mostly Cloudy
2:15 AM 60.8 °F - 55.4 °F 82% 29.88 in 10.0 mi SW 9.2 mph - N/A   Overcast
2:35 AM 60.8 °F - 55.4 °F 82% 29.86 in 10.0 mi SW 13.8 mph - N/A   Overcast
2:55 AM 60.8 °F - 55.4 °F 82% 29.85 in 10.0 mi SW 16.1 mph - N/A   Mostly Cloudy
3:15 AM 59.0 °F - 55.4 °F 88% 29.85 in 8.0 mi WSW 15.0 mph - N/A   Mostly Cloudy
3:35 AM 59.0 °F - 55.4 °F 88% 29.88 in 8.0 mi WSW 8.1 mph - N/A   Overcast
3:55 AM 60.8 °F - 55.4 °F 82% 29.89 in 10.0 mi West 9.2 mph - N/A   Overcast
4:15 AM 60.8 °F - 55.4 °F 82% 29.89 in 10.0 mi West 8.1 mph - N/A   Overcast
4:35 AM 60.8 °F - 55.4 °F 82% 29.89 in 10.0 mi West 8.1 mph - N/A   Overcast
4:55 AM 60.8 °F - 55.4 °F 82% 29.90 in 10.0 mi West 8.1 mph - N/A   Mostly Cloudy
5:15 AM 59.0 °F - 55.4 °F 88% 29.91 in 10.0 mi West 5.8 mph - N/A   Mostly Cloudy
5:35 AM 59.0 °F - 55.4 °F 88% 29.92 in 10.0 mi Variable 5.8 mph - N/A   Mostly Cloudy
5:55 AM 59.0 °F - 55.4 °F 88% 29.92 in 10.0 mi WSW 5.8 mph - N/A   Mostly Cloudy
6:15 AM 57.2 °F - 53.6 °F 88% 29.92 in 10.0 mi WSW 9.2 mph - N/A   Partly Cloudy
6:35 AM 57.2 °F - 53.6 °F 88% 29.93 in 10.0 mi WSW 6.9 mph - N/A   Clear
6:55 AM 57.2 °F - 53.6 °F 88% 29.94 in 10.0 mi WSW 5.8 mph - N/A   Clear
7:15 AM 57.2 °F - 55.4 °F 94% 29.94 in 10.0 mi WSW 8.1 mph - N/A   Scattered Clouds
7:35 AM 59.0 °F - 55.4 °F 88% 29.95 in 10.0 mi WSW 8.1 mph - N/A   Mostly Cloudy
7:55 AM 60.8 °F - 55.4 °F 82% 29.96 in 10.0 mi West 8.1 mph - N/A   Scattered Clouds
8:15 AM 60.8 °F - 55.4 °F 82% 29.97 in 10.0 mi WSW 5.8 mph - N/A   Mostly Cloudy
8:35 AM 60.8 °F - 55.4 °F 82% 29.97 in 10.0 mi West 9.2 mph - N/A   Mostly Cloudy
8:55 AM 60.8 °F - 53.6 °F 77% 29.99 in 10.0 mi Variable 5.8 mph - N/A   Mostly Cloudy
9:15 AM 60.8 °F - 53.6 °F 77% 29.99 in 10.0 mi West 9.2 mph - N/A   Partly Cloudy
9:35 AM 62.6 °F - 53.6 °F 72% 30.00 in 10.0 mi West 9.2 mph - N/A   Scattered Clouds
9:55 AM 62.6 °F - 53.6 °F 72% 30.01 in 10.0 mi West 5.8 mph - N/A   Mostly Cloudy
10:15 AM 64.4 °F - 53.6 °F 68% 30.01 in 10.0 mi WNW 9.2 mph - N/A   Scattered Clouds
10:35 AM 62.6 °F - 51.8 °F 68% 30.02 in 10.0 mi WNW 8.1 mph - N/A   Partly Cloudy
10:55 AM 62.6 °F - 51.8 °F 68% 30.02 in 10.0 mi Variable 4.6 mph - N/A   Clear
11:15 AM 62.6 °F - 50.0 °F 63% 30.03 in 10.0 mi NW 11.5 mph - N/A   Clear
11:35 AM 62.6 °F - 48.2 °F 59% 30.03 in 10.0 mi NNW 13.8 mph - N/A   Clear
11:55 AM 62.6 °F - 48.2 °F 59% 30.02 in 10.0 mi NW 11.5 mph - N/A   Clear
12:15 PM 62.6 °F - 46.4 °F 55% 30.01 in 10.0 mi WNW 9.2 mph - N/A   Clear
12:35 PM 64.4 °F - 44.6 °F 49% 30.00 in 10.0 mi WNW 8.1 mph - N/A   Clear
12:55 PM 64.4 °F - 44.6 °F 49% 30.00 in 10.0 mi NW 8.1 mph - N/A   Clear
1:15 PM 66.2 °F - 44.6 °F 46% 30.00 in 10.0 mi NW 6.9 mph - N/A   Clear
1:35 PM 66.2 °F - 42.8 °F 43% 29.99 in 10.0 mi Calm Calm - N/A   Clear
1:55 PM 66.2 °F - 41.0 °F 40% 29.99 in 10.0 mi Variable 3.5 mph - N/A   Clear
2:15 PM 64.4 °F - 42.8 °F 45% 29.99 in 10.0 mi WNW 4.6 mph - N/A   Clear
2:35 PM 64.4 °F - 41.0 °F 42% 29.99 in 10.0 mi WNW 5.8 mph - N/A   Clear
2:55 PM 64.4 °F - 42.8 °F 45% 30.00 in 10.0 mi West 3.5 mph - N/A   Clear
3:15 PM 64.4 °F - 42.8 °F 45% 30.01 in 10.0 mi Calm Calm - N/A   Clear
3:35 PM 64.4 °F - 41.0 °F 42% 30.01 in 10.0 mi WNW 5.8 mph - N/A   Clear
3:55 PM 64.4 °F - 41.0 °F 42% 30.01 in 10.0 mi NNW 4.6 mph - N/A   Clear
4:15 PM 62.6 °F - 41.0 °F 45% 30.01 in 10.0 mi Calm Calm - N/A   Clear
4:35 PM 62.6 °F - 41.0 °F 45% 30.02 in 10.0 mi NNW 3.5 mph - N/A   Clear
4:55 PM 60.8 °F - 41.0 °F 48% 30.02 in 10.0 mi Calm Calm - N/A   Clear
5:15 PM 59.0 °F - 39.2 °F 48% 30.02 in 10.0 mi NNE 3.5 mph - N/A   Clear
5:35 PM 57.2 °F - 41.0 °F 55% 30.03 in 10.0 mi Calm Calm - N/A   Clear
5:55 PM 51.8 °F - 39.2 °F 62% 30.03 in 10.0 mi ENE 3.5 mph - N/A   Clear
6:15 PM 51.8 °F - 39.2 °F 62% 30.03 in 10.0 mi Calm Calm - N/A   Clear
6:35 PM 48.2 °F - 41.0 °F 76% 30.02 in 10.0 mi Calm Calm - N/A   Clear
6:55 PM 48.2 °F - 39.2 °F 71% 30.02 in 10.0 mi Calm Calm - N/A   Clear
7:15 PM 46.4 °F - 39.2 °F 76% 30.01 in 10.0 mi Calm Calm - N/A   Clear
7:35 PM 46.4 °F - 39.2 °F 76% 30.02 in 10.0 mi Calm Calm - N/A   Clear
7:55 PM 44.6 °F - 37.4 °F 76% 30.02 in 10.0 mi Calm Calm - N/A   Clear
8:15 PM 44.6 °F - 39.2 °F 81% 30.01 in 10.0 mi Calm Calm - N/A   Clear
8:35 PM 44.6 °F - 37.4 °F 76% 30.01 in 10.0 mi Calm Calm - N/A   Clear
8:55 PM 44.6 °F - 39.2 °F 81% 30.01 in 10.0 mi Calm Calm - N/A   Clear
9:15 PM 46.4 °F - 39.2 °F 76% 30.01 in 10.0 mi Calm Calm - N/A   Clear
9:35 PM 44.6 °F - 39.2 °F 81% 30.00 in 10.0 mi Calm Calm - N/A   Clear
9:55 PM 44.6 °F - 39.2 °F 81% 30.00 in 10.0 mi Calm Calm - N/A   Clear
10:35 PM 44.6 °F - 39.2 °F 81% 29.98 in 10.0 mi Calm Calm - N/A   Clear
10:55 PM 44.6 °F - 39.2 °F 81% 29.98 in 10.0 mi Calm Calm - N/A   Clear
11:15 PM 46.4 °F 45.2 °F 39.2 °F 76% 29.97 in 10.0 mi SSE 3.5 mph - N/A   Partly Cloudy
11:35 PM 48.2 °F - 44.6 °F 87% 29.97 in 10.0 mi Calm Calm - N/A   Partly Cloudy
11:55 PM 53.6 °F - 48.2 °F 82% 29.97 in 10.0 mi South 3.5 mph - N/A   Partly Cloudy